www.pogodaiklimat.ru

Погода и климат >> Архив погоды >> Австралия >> Западная Австралия >> Форрест


ПОГОДА в Форресте

  • Прогноз погоды в Форресте
  • Монитор погоды в Форресте

АРХИВ ПОГОДЫ в Форресте

Время (UTC), дата Ветер
(напр.,м/с)
 
Видим.   Явления Облачность Т
(С)
Тd
(С)
f
(%)
Тe
(С)
Тes
(С)
Комфортность P
(гПа)
Po
(гПа)
Тmin
(С)
Tmax
(С)
R
(мм)
R24
(мм)
S
(см)
04 13.09 0 н/о 9/0
[]
+33.0 +2.9 15 1023.4 1004.4
06 13.09 0 н/о н/о +34.4 +4.0 15 1021.7 1002.7
07 13.09 0 н/о 9/0
[]
+33.7 +2.5 14 1021.3 1002.3
09 13.09 0 н/о н/о +31.8 +2.0 15 1021.3 1002.3
10 13.09 0 н/о н/о +27.2 +2.3 20 1021.8 1002.8
12 13.09 0 н/о н/о +24.5 +3.2 25 1022.5 1003.5
13 13.09 0 н/о 3/0
[]
+23.0 +3.5 28 1022.6 1003.6 +34.8
15 13.09 0 н/о н/о +23.3 +2.7 26 1022.0 1003.0
16 13.09 0 н/о 10/0
[]
+22.4 +2.5 27 1021.7 1002.7
18 13.09 0 н/о н/о +21.5 +2.7 29 1020.8 1001.8
19 13.09 0 н/о 10/0
[]
+21.0 +2.8 30 1020.4 1001.4
21 13.09 0 н/о н/о +17.1 +1.5 35 1020.9 1001.9
22 13.09 0 н/о 10/0
[]
+17.9 +1.4 33 1021.3 1002.3
00 14.09 0 н/о н/о +28.7 +0.4 16 1021.6 1002.6
01 14.09 0 н/о н/о +32.8 +0.8 13 1021.2 1002.2 +16.3
03 14.09 0 н/о н/о +36.5 -3.0 8 1019.5 1000.5
04 14.09 0 н/о 3/0
[]
+37.6 -4.0 7 1018.4 999.5
06 14.09 0 н/о н/о +37.7 -6.0 6 1017.0 998.1
07 14.09 0 н/о 5/0
[]
+38.4 -5.5 6 1016.5 997.6
09 14.09 0 н/о н/о +32.6 +0.6 13 1016.9 998.0
10 14.09 0 н/о 1/0
[]
+28.6 +0.3 16 1017.1 998.2
12 14.09 0 н/о н/о +24.0 +1.0 22 1018.6 999.7
13 14.09 0 н/о 9/0
[]
+22.7 +1.7 25 1019.0 1000.0 +39.0
15 14.09 0 н/о н/о +20.3 +2.2 30 1018.2 999.3
16 14.09 0 н/о 8/0
[]
+19.5 +2.8 33 1018.2 999.3
18 14.09 0 н/о н/о +15.4 +8.9 65 1017.4 998.5
19 14.09 0 н/о н/о +14.4 +9.6 73 1017.2 998.3
21 14.09 0 н/о н/о +11.5 +7.4 76 1017.9 999.0
22 14.09 0 н/о 9/0
[]
+13.2 +8.9 75 1017.6 998.7
00 15.09 0 н/о н/о +21.9 +9.4 45 1018.6 999.7
01 15.09 0 н/о н/о +24.9 +8.8 36 1019.1 1000.1 +11.2
03 15.09 0 н/о н/о +27.5 +8.9 31 1018.4 999.5
04 15.09 0 н/о н/о +29.2 +8.8 28 1017.8 998.9
06 15.09 0 н/о н/о +27.7 +8.6 30 1017.6 998.7
07 15.09 0 н/о н/о +25.9 +9.7 36 1018.1 999.2
09 15.09 0 н/о н/о +19.8 +11.3 58 1020.3 1001.3
10 15.09 0 н/о 4/4 300 м
[]
+16.4 +12.0 75 1021.4 1002.4
12 15.09 0 н/о н/о +14.7 +10.7 77 1022.8 1003.8
13 15.09 0 н/о 9/0
[]
+14.2 +10.8 80 1022.7 1003.7 +30.8
15 15.09 0 н/о н/о +13.2 +10.2 82 1023.3 1004.3
16 15.09 0 н/о 9/9 300 м
[]
+12.9 +10.1 83 1023.4 1004.4
18 15.09 0 н/о н/о +13.5 +9.0 74 1023.4 1004.4
19 15.09 0 н/о 9/9 600 м
[]
+13.3 +8.2 71 1024.1 1005.1
21 15.09 0 н/о н/о +12.3 +7.6 73 1025.0 1005.9
22 15.09 0 н/о н/о +11.6 +7.7 77 1025.3 1006.2
00 16.09 0 н/о н/о +15.8 +8.3 61 1026.3 1007.2
01 16.09 0 н/о 10/10 600 м
[]
+17.3 +8.2 55 1026.3 1007.2 +11.4
03 16.09 0 н/о н/о +19.6 +7.0 44 1025.4 1006.3
04 16.09 0 н/о 9/0
[]
+20.2 +5.8 39 1024.6 1005.5
06 16.09 0 н/о н/о +21.1 +5.1 35 1023.1 1004.1
07 16.09 0 н/о 1/0
[]
+21.2 +5.9 37 1022.9 1003.9
09 16.09 0 н/о н/о +18.2 +5.8 44 1023.4 1004.4
10 16.09 0 н/о н/о +15.8 +4.5 47 1023.7 1004.7
12 16.09 0 н/о н/о +13.3 +6.9 65 1024.9 1005.8
13 16.09 0 н/о 10/0
[]
+12.9 +7.1 68 1024.9 1005.8 +22.6
15 16.09 0 н/о н/о +11.8 +7.1 73 1024.1 1005.1
16 16.09 0 н/о н/о +11.0 +6.7 75 1023.9 1004.9
18 16.09 0 н/о н/о +9.8 +6.2 78 1022.6 1003.6
19 16.09 0 н/о 4/0
[]
+9.4 +5.8 78 1022.2 1003.2
21 16.09 0 н/о н/о +8.6 +5.0 78 1022.6 1003.6
22 16.09 0 н/о н/о +9.0 +5.2 77 1022.7 1003.7
00 17.09 0 н/о н/о +14.7 +6.3 57 1022.7 1003.7
01 17.09 0 н/о 5/0
[]
+18.3 +5.5 43 1022.8 1003.8 +8.4
03 17.09 0 н/о н/о +23.1 +5.1 31 1021.1 1002.1
04 17.09 0 н/о н/о +25.1 +5.3 28 1019.7 1000.7
06 17.09 0 н/о н/о +27.2 +4.9 24 1017.6 998.7
07 17.09 0 н/о 10/0
[]
+27.2 +4.9 24 1017.1 998.2
09 17.09 0 н/о н/о +26.5 +3.7 23 1016.8 997.9
10 17.09 0 н/о н/о +22.8 +3.4 28 1017.0 998.1
12 17.09 0 н/о н/о +20.3 +2.6 31 1017.6 998.7
13 17.09 0 н/о н/о +19.2 +1.2 30 1016.5 997.6 +28.0
15 17.09 0 н/о н/о +17.2 +1.2 34 1015.7 996.8
16 17.09 0 н/о 10/0
[]
+16.0 -0.2 33 1015.4 996.5
18 17.09 0 н/о н/о +13.4 +0.1 40 1014.4 995.5
19 17.09 0 н/о н/о +12.4 -0.5 41 1014.0 995.1
21 17.09 0 н/о н/о +9.9 -1.5 45 1013.9 995.0
22 17.09 0 н/о н/о +11.2 -1.5 41 1013.7 994.8
00 18.09 0 н/о н/о +25.0 +1.2 21 1012.9 994.1
01 18.09 0 н/о н/о +28.3 +0.9 17 1012.1 993.3 +9.7
03 18.09 0 н/о н/о +32.1 +0.2 13 1010.5 991.7
04 18.09 0 н/о н/о +34.7 -0.1 11 1009.3 990.5
06 18.09 0 н/о н/о +36.4 -1.5 9 1007.2 988.5
07 18.09 0 н/о н/о +35.3 -2.3 9 1006.4 987.7
09 18.09 0 н/о н/о +33.8 -3.5 9 1006.3 987.6
10 18.09 0 н/о н/о +29.8 -5.1 10 1006.4 987.7
12 18.09 0 н/о н/о +24.3 -5.8 13 1006.8 988.1
13 18.09 0 н/о н/о +21.6 +0.8 25 1007.2 988.5 +37.5
15 18.09 0 н/о н/о +16.0 -0.2 33 1007.0 988.3
16 18.09 0 н/о н/о +14.2 -0.6 36 1006.2 987.5
18 18.09 0 н/о н/о +12.2 -1.0 40 1005.0 986.3
19 18.09 0 н/о н/о +14.5 -1.2 34 1004.9 986.2
21 18.09 0 н/о н/о +14.0 -3.7 29 1006.7 988.0
22 18.09 0 н/о н/о +15.5 -1.1 32 1007.4 988.7
00 19.09 0 н/о н/о +22.9 +3.9 29 1007.9 989.2
01 19.09 0 н/о 9/0
[]
+24.0 +4.4 28 1007.8 989.1 +11.8
03 19.09 0 н/о н/о +24.4 +5.7 30 1007.5 988.8
04 19.09 0 н/о 9/0
[]
+24.0 +5.8 31 1007.6 988.9
06 19.09 0 н/о н/о +21.4 +7.6 41 1008.4 989.6
07 19.09 0 н/о 8/0
[]
+22.1 +5.9 35 1008.6 989.8
09 19.09 0 н/о н/о +19.4 +1.4 30 1010.4 991.6
10 19.09 0 н/о 1/0
[]
+16.5 +4.2 44 1011.7 992.9
12 19.09 0 н/о н/о +12.3 +4.8 60 1015.2 996.3
13 19.09 0 н/о н/о +11.1 +4.3 63 1015.7 996.8 +25.8
15 19.09 0 н/о н/о +9.5 +3.5 66 1016.8 997.9
16 19.09 0 н/о н/о +8.7 +3.5 70 1017.0 998.1
18 19.09 0 н/о н/о +7.1 +3.0 75 1017.8 998.9
19 19.09 0 н/о н/о +5.7 +2.0 77 1018.3 999.4
21 19.09 0 н/о н/о +4.5 +1.0 78 1020.0 1001.0
22 19.09 0 н/о н/о +5.8 +1.3 73 1020.5 1001.5
00 20.09 0 н/о н/о +10.7 +2.8 58 1021.3 1002.3
01 20.09 0 н/о н/о +12.2 +2.6 52 1021.6 1002.6 +4.5

 

Местоположение метеостанции Форрест (Западная Австралия, Австралия): широта -30.83 долгота 128.11 высота над уровнем моря 160 м.

В архиве по умолчанию представлена погода в Форресте за последнюю неделю. Архивные данные за месяц целиком и за предыдущие месяцы, начиная с января 2011 года, Вы можете получить, выбрав интересующий диапазон дат из раскрывающегося списка и нажав кнопку "Ввод!".


*Определитесь, кто Вы:
робот инопланетянин человек

Внимание! Время в таблицах - всемирное. Для получения местного времени необходимо прибавить поправку, которая равна 8 ч.

Смотрите также архив погоды в соседних городах и на ближайших метеорологических станциях:

Погода в Евкле (Западная Австралия, Австралия) (120 км)
Погода в Ред Рокс Пойнт (Западная Австралия, Австралия) (162 км)
Погода в Наллаборе (Южная Австралия, Австралия) (274 км)
Погода в Уорбертоне (Западная Австралия, Австралия) (544 км)
Погода в Сидуне (Южная Австралия, Австралия) (550 км)
Погода в Лавертоне (Западная Австралия, Австралия) (603 км)
Погода в Таркуле (Южная Австралия, Австралия) (618 км)
Погода в Норсмане (Западная Австралия, Австралия) (622 км)
Погода в Калгурли-Боулдере (Западная Австралия, Австралия) (636 км)
Погода в Эрнабелле (Южная Австралия, Австралия) (644 км)

Пояснения к столбцам:

Ветер - указаны скорость ветра в м/с - средняя за 10 мин, порывы в срок и между сроками (в фигурных скобках) и направление, откуда дует ветер: С - северный, СВ - северо-восточный, В - восточный, ЮВ - юго-восточный, Ю - южный, ЮЗ - юго-западный, З - западный, СЗ - северо-западный.
Видимость - горизонтальная дальность видимости в метрах или километрах. При видимости от 1 до 10 км при отсутствии осадков обычно наблюдается дымка, при ухудшении видимости до 1 км и менее - туман. В сухую погоду видимость может ухудшаться дымом, пылью или мглою.
Явления - указаны атмосферные явления, наблюдавшиеся в срок или в последний час перед сроком; фигурными скобками обозначены явления, наблюдавшиеся между сроками (за 1-3 часа до срока); квадратными скобками обозначены град или гололедные отложения с указанием их диаметра в мм.
Облачность - указаны через наклонную черту общая и нижняя облачность в баллах и высота нижней границы облаков в метрах; квадратными скобками обозначены формы облаков: Ci - перистые, Cs - перисто-слоистые, Cc - перисто-кучевые, Ac - высококучевые, As - высокослоистые, Sc - слоисто-кучевые, Ns - слоисто-дождевые, Cu - кучевые, Cb - кучево-дождевые. Подробнее классификацию облаков см. в Атласе облаков (PDF).
T - Температура воздуха - температура, измеренная на высоте 2 м над землей.
Td - Температура точки росы - температура, при понижении до которой содержащийся в воздухе водяной пар достигнет насыщения.
f - Относительная влажность воздуха - влажноcть воздуха, измеренная на высоте 2 м над землей.
Te - Эффективная температура - температура, которую ощущает одетый по сезону человек в тени. Характеристика душности погоды. При расчете учитывается влияние влажности воздуха и скорости ветра на теплоощущения человека.
Tes - Эффективная температура на солнце - температура, которую ощущает человек, с поправкой на солнечный нагрев. Характеристика знойности погоды. Зависит от высоты солнца над горизонтом, облачности и скорости ветра. Ночью, в пасмурную погоду, а также при ветре 12 м/с и более поправка равна нулю.
P - Атмосферное давление - приведенное к уровню моря атмосферное давление.
Po - Атмосферное давление - измеренное на уровне метеостанции атмосферное давление.
Tmin - Минимальная температура - минимум температуры воздуха на высоте 2 м над землей.
Tmax - Максимальная температура - максимум температуры воздуха на высоте 2 м над землей.
R - Количество осадков - Количество выпавших осадков за период времени, мм. При наведении курсора мыши на число - период времени, за который выпало указанное количество осадков.
R24 - Количество осадков - Количество выпавших осадков за 24 часа, мм.
S - Снежный покров - Высота снежного покрова, см. При наведении курсора мыши на число - состояние снежного покрова и степень покрытия местности в баллах.